EW9311 Weather Reports


Display with metric or nautical units.
time (UTC)temp
F
wind
direction
speed
MPH
gust
MPH
rain 1hr
in
rain 24hr
in
rain mn
in
humidity
%
barometer
mb
20260902221537 58 0 0.0 8.0 0.00 0.00 0.00 47 1015.7
20260902220043 58 0 0.0 10.0 0.00 0.00 0.00 49 1015.5
20260902214554 58 0 0.0 3.0 0.00 0.00 0.00 48 1015.3
20260902213034 57 42 1.0 12.0 0.00 0.00 0.00 47 1015.1
20260902211535 57 0 0.0 9.0 0.00 0.00 0.00 50 1015.1
20260902210036 57 0 0.0 9.0 0.00 0.00 0.00 52 1015.1
20260902204536 56 0 0.0 10.0 0.00 0.00 0.00 51 1014.9
20260902203038 56 0 0.0 11.0 0.00 0.00 0.00 52 1014.9
20260902201541 56 0 0.0 11.0 0.00 0.00 0.00 55 1015.0
20260902200033 55 58 0.0 12.0 0.00 0.00 0.00 57 1014.7
20260902194533 54 54 0.0 8.0 0.00 0.00 0.00 58 1014.6
20260902193037 54 0 0.0 1.0 0.00 0.00 0.00 57 1014.4
20260902191541 54 0 0.0 0.0 0.00 0.00 0.00 65 1014.4
20260902190035 53 0 0.0 2.0 0.00 0.00 0.00 67 1014.3
20260902184540 53 0 0.0 0.0 0.00 0.00 0.00 67 1014.2
20260902183042 52 0 0.0 0.0 0.00 0.00 0.00 74 1013.9
20260902181536 51 0 0.0 0.0 0.00 0.00 0.00 71 1013.8
20260902180036 51 0 0.0 0.0 0.00 0.00 0.00 72 1013.7
20260902174546 51 0 0.0 0.0 0.00 0.00 0.00 74 1013.6
20260902173056 49 0 0.0 0.0 0.00 0.00 0.00 78 1013.2
20260902171541 45 0 0.0 0.0 0.00 0.00 0.00 84 1013.2
20260902170036 43 0 0.0 0.0 0.00 0.00 0.00 86 1013.1
20260902164534 41 0 0.0 0.0 0.00 0.00 0.00 87 1012.8
20260902163036 39 0 0.0 0.0 0.00 0.00 0.00 89 1012.7
20260902161533 38 0 0.0 0.0 0.00 0.00 0.00 90 1012.4
20260902160050 37 0 0.0 0.0 0.00 0.00 0.00 91 1012.1
20260902154543 35 0 0.0 0.0 0.00 0.00 0.00 91 1012.0
20260902153040 35 0 0.0 0.0 0.00 0.00 0.00 90 1011.9
20260902151533 35 0 0.0 0.0 0.00 0.00 0.00 90 1011.8
20260902150035 35 0 0.0 0.0 0.00 0.00 0.00 90 1011.6
20260902144536 35 0 0.0 0.0 0.00 0.00 0.00 90 1011.6
20260902143038 35 0 0.0 0.0 0.00 0.00 0.00 90 1011.5
20260902141533 35 0 0.0 0.0 0.00 0.00 0.00 89 1011.3
20260902140034 36 0 0.0 0.0 0.00 0.00 0.00 89 1011.2
20260902134536 36 0 0.0 0.0 0.00 0.00 0.00 88 1011.0
20260902133040 36 0 0.0 0.0 0.00 0.00 0.00 87 1010.9
20260902131535 38 0 0.0 0.0 0.00 0.00 0.00 85 1010.9
20260902130035 38 0 0.0 0.0 0.00 0.00 0.00 85 1010.7
20260902124535 37 0 0.0 0.0 0.00 0.00 0.00 85 1010.5
20260902123045 37 0 0.0 0.0 0.00 0.00 0.00 86 1010.3
20260902121534 38 0 0.0 0.0 0.00 0.00 0.00 85 1010.3
20260902120037 39 0 0.0 0.0 0.00 0.00 0.00 83 1010.3
20260902114541 39 0 0.0 0.0 0.00 0.00 0.00 82 1010.5
20260902113034 40 0 0.0 0.0 0.00 0.00 0.00 82 1010.2
20260902111543 39 0 0.0 0.0 0.00 0.00 0.00 84 1010.2
20260902110037 38 0 0.0 0.0 0.00 0.00 0.00 84 1010.3
20260902104536 39 0 0.0 0.0 0.00 0.00 0.00 83 1010.3
20260902103035 39 0 0.0 0.0 0.00 0.00 0.00 83 1010.2
20260902101542 39 0 0.0 0.0 0.00 0.00 0.00 83 1010.2
20260902100036 39 0 0.0 0.0 0.00 0.00 0.00 83 1010.1
20260902094534 39 0 0.0 0.0 0.00 0.00 0.00 83 1010.0
20260902093037 40 0 0.0 0.0 0.00 0.00 0.00 82 1010.1
20260902091537 40 0 0.0 0.0 0.00 0.00 0.00 83 1010.0
20260902090041 40 0 0.0 3.0 0.00 0.00 0.00 83 1010.0
20260902084541 41 0 0.0 0.0 0.00 0.00 0.00 81 1010.1
20260902083041 39 0 0.0 0.0 0.00 0.00 0.00 85 1010.0
20260902081539 39 0 0.0 0.0 0.00 0.00 0.00 86 1010.1
20260902080037 40 0 0.0 0.0 0.00 0.00 0.00 86 1010.1
20260902074536 40 0 0.0 0.0 0.00 0.00 0.00 86 1009.9
20260902073038 40 0 0.0 0.0 0.00 0.00 0.00 87 1009.9
20260902071543 41 0 0.0 0.0 0.00 0.00 0.00 86 1010.0
20260902070043 42 0 0.0 0.0 0.00 0.00 0.00 86 1009.8
20260902064541 42 0 0.0 0.0 0.00 0.00 0.00 86 1009.9
20260902063035 43 0 0.0 0.0 0.00 0.00 0.00 87 1009.9
20260902061541 44 0 0.0 0.0 0.00 0.00 0.00 86 1009.9
20260902060039 45 0 0.0 0.0 0.00 0.00 0.00 87 1009.7
20260902054536 46 0 0.0 0.0 0.00 0.00 0.00 86 1009.8
20260902053036 47 0 0.0 0.0 0.00 0.00 0.00 85 1009.8
20260902051537 48 0 0.0 0.0 0.00 0.00 0.00 83 1009.5
20260902050039 50 0 0.0 0.0 0.00 0.00 0.00 80 1009.4
20260902044535 53 0 0.0 0.0 0.00 0.00 0.00 72 1009.3
20260902043035 55 0 0.0 0.0 0.00 0.00 0.00 69 1009.3
20260902041549 56 0 0.0 0.0 0.00 0.00 0.00 69 1009.4
20260902040035 57 0 0.0 0.0 0.00 0.00 0.00 68 1009.6
20260902034537 57 0 0.0 0.0 0.00 0.00 0.00 64 1009.8
20260902033035 58 0 0.0 0.0 0.00 0.00 0.00 62 1009.7
20260902031537 59 0 0.0 0.0 0.00 0.00 0.00 61 1009.6
20260902030035 59 0 0.0 0.0 0.00 0.00 0.00 61 1009.4
20260902024536 58 0 0.0 0.0 0.00 0.00 0.00 60 1009.4
20260902023035 58 0 0.0 0.0 0.00 0.00 0.00 61 1009.5
20260902021534 57 0 0.0 0.0 0.00 0.00 0.00 63 1009.6
20260902020048 57 0 0.0 0.0 0.00 0.00 0.00 63 1009.6
20260902014533 57 0 0.0 0.0 0.00 0.00 0.00 62 1009.7
20260902013037 57 0 0.0 0.0 0.00 0.00 0.00 62 1009.6
20260902011535 57 0 0.0 0.0 0.00 0.00 0.00 62 1009.7
20260902010036 56 0 0.0 0.0 0.00 0.00 0.00 63 1009.7
20260902004534 57 0 0.0 2.0 0.00 0.00 0.00 64 1009.8
20260902003040 56 0 0.0 0.0 0.00 0.00 0.00 64 1009.8
20260902001535 56 0 0.0 0.0 0.00 0.00 0.00 63 1009.8
20260902000035 56 0 0.0 0.0 0.00 0.00 0.00 63 1009.8
20260901234539 56 0 0.0 0.0 0.00 0.00 0.00 65 1009.9
20260901233034 55 0 0.0 0.0 0.00 0.00 0.00 66 1009.9
20260901231542 55 0 0.0 0.0 0.00 0.00 0.00 64 1009.9
20260901230045 55 0 0.0 0.0 0.00 0.00 0.00 65 1009.9
20260901224534 55 0 0.0 1.0 0.00 0.00 0.00 62 1010.0
20260901223048 54 0 0.0 6.0 0.00 0.00 0.00 59 1010.1